ONEWEB-0205 (48226 NORAD) Tracking and Keplerian Element Data

This shows tracking and keplerian element data for the satellite.

Feedback or suggestion? Click here.




ElementValue
Catalog48226
NameONEWEB-0205
Epoch Orbit176
Epoch Day136.75001157
Epoch Year2021
RAAN305.7835
Inclination87.4148
Eccentricity0.0010459
Argument of Perigee184.6253
Mean Anonmoly223.7164
Mean Motion15.26088481
Decay Rate-0.01399746
L11 48226U 21031S 21136.75001157 -.01399746 00000-0 -59816-1 0 9999
L22 48226 87.4148 305.7835 0010459 184.6253 223.7164 15.26088481 1767

Live tracking and technical data element details for ONEWEB-0205 (NORAD 48226). ONEWEB-0205 can be tracked NOW for your location showing map with azimuth and elevation plus other details from your city location.

Track the satellite on the map from your city or location and see movement details for azimuth, elevation, latitude, longitude, range, height, and movement on the map or in text.







IsCatalogInMostPopularTable: catalog: 48226, numindb: 4
Update: records affected: 1



GetName: 48226 ONEWEB-0205

Hit Count: updated at: Mon, 17 May 2021 16:22:29 GMT